Location: Unspecified
(41.5000°N, 0.0000°E)
Time: 15:00:46
(UTC+00:00)

Vanguard 1 - Pass Details

Date: 24 June 2019
Orbit: 653 x 3830 km, 34.3° (Epoch: 17 July)

Event Time Altitude Azimuth Distance (km) Brightness Sun altitude
Exits shadow 01:50:57 24° 219° (SW) 5,330 13.2 -20.4°
Maximum altitude 02:03:31 49° 161° (SSE) 3,265 12.4 -19.3°
Drops below altitude 10° 02:15:11 10° 91° (E) 4,227 13.7 -18.2°
Sets 02:17:58 0° 86° (E) 4,884 14.2 -17.9°
